Theta_e
292 298 301 304 305 305 304 303 302 299 298 297 297 298 299 300 301 302 303 304 305 305 305 305 305 306 307 309 311 312 310 310 308 308 309 308 308 307 308 310 315 319 322
297 299 300 301 303 303 303 302 301 298 298 297 296 297 298 299 301 302 302 303 304 304 305 304 305 306 308 309 311 311 310 310 309 304 308 303 305 306 306 307 309 314 319
296 298 299 300 300 301 301 301 300 298 297 296 297 297 298 298 299 300 301 302 303 304 304 304 305 306 308 309 310 311 309 306 309 307 305 303 300 302 305 304 305 309 313
297 298 298 298 300 300 300 300 299 298 296 297 297 297 296 296 298 300 300 301 302 303 304 304 305 306 308 310 311 312 310 308 305 307 306 305 307 300 300 304 303 304 306
298 298 298 299 299 299 300 299 298 296 295 296 296 296 296 297 298 298 299 299 301 302 302 303 304 305 308 310 310 310 309 308 307 306 307 305 305 307 303 297 300 302 302
297 298 299 298 298 298 297 297 296 294 294 295 295 296 296 296 297 297 298 298 300 301 301 302 303 305 308 310 311 310 307 308 308 309 307 306 306 302 302 298 296 296 298
295 296 297 297 296 296 296 295 294 292 293 293 294 295 295 296 297 297 297 298 298 299 300 302 302 304 309 311 312 309 308 309 308 308 307 307 307 308 305 300 297 295 296
293 296 297 297 296 295 295 294 293 292 292 293 294 295 295 296 296 297 297 297 298 298 299 301 302 305 309 311 312 309 308 309 308 308 308 306 308 307 307 305 300 296 295
291 294 295 296 295 295 294 294 292 292 292 292 293 294 295 295 296 297 297 297 297 298 300 301 302 305 309 310 309 308 308 308 308 307 306 307 307 309 308 306 305 301 295
290 292 294 295 295 295 294 293 293 292 292 292 293 294 294 295 296 296 296 297 297 298 300 301 302 304 308 309 308 307 308 307 307 306 307 307 308 306 307 306 307 305 299
290 291 293 294 295 294 293 292 292 292 291 291 292 293 294 294 295 296 296 297 297 299 300 300 301 303 305 308 307 306 307 305 305 306 307 307 307 305 304 303 302 303 301
289 290 292 293 293 293 292 292 292 292 292 292 292 292 293 294 294 295 296 297 297 299 300 300 301 302 305 308 306 305 305 305 304 305 306 306 305 303 303 302 300 301 300
287 288 289 291 292 292 293 292 292 292 292 291 291 291 292 293 294 295 296 296 297 299 299 300 300 302 304 308 307 306 304 304 304 305 305 304 304 303 303 300 299 298 297
287 286 287 289 290 291 292 292 292 292 291 290 290 291 292 293 294 295 295 296 297 298 299 300 300 301 304 308 307 306 305 304 304 304 306 305 305 302 301 299 298 298 297
286 286 286 287 288 288 289 290 291 291 291 290 290 290 291 293 293 294 295 295 296 298 299 299 300 301 302 306 307 307 306 304 303 303 304 305 299 296 299 300 298 299 296
286 286 287 286 287 286 288 289 288 289 290 290 290 290 291 292 292 293 293 294 296 298 299 301 301 299 301 298 297 303 305 303 303 302 302 300 293 296 296 296 297 298 296
287 286 287 287 287 287 287 287 288 289 289 289 289 289 290 291 291 292 292 293 295 297 298 300 301 300 300 298 297 296 305 303 303 302 300 298 297 296 300 295 295 294 295
287 287 287 286 286 286 285 287 287 288 288 288 288 289 289 289 289 290 292 293 295 296 297 299 300 300 299 297 296 293 304 303 302 301 301 300 297 299 298 298 297 297 296
288 287 286 285 285 285 286 286 286 287 287 287 288 288 289 288 289 290 291 293 294 296 297 298 299 298 298 295 294 296 302 300 300 300 300 300 298 293 294 296 293 291 292
286 285 285 285 285 284 286 285 284 285 285 286 287 288 288 289 289 289 289 290 293 293 290 294 295 291 297 295 294 296 300 299 292 295 296 289 298 292 294 296 292 290 290
286 286 285 285 283 284 285 284 283 283 284 285 286 287 287 288 289 289 288 290 291 290 291 290 290 291 292 296 294 294 298 297 291 291 290 290 294 293 294 294 293 293 290
285 285 284 283 283 284 284 283 283 284 284 285 285 285 285 286 287 287 287 288 290 289 286 287 286 287 290 289 293 293 294 296 292 291 290 290 293 293 294 292 294 292 290
285 285 283 281 283 284 285 283 282 284 284 285 285 285 285 286 286 286 287 288 287 286 286 286 286 287 287 287 291 292 293 293 290 288 291 292 292 293 293 292 292 288 289
284 282 281 279 279 281 282 283 284 285 286 285 284 285 285 285 286 286 286 286 286 286 285 286 286 286 287 287 286 286 288 288 288 289 289 290 290 291 289 288 289 288 289
280 280 279 277 275 278 279 281 281 284 285 285 285 285 285 285 284 285 286 285 286 287 286 286 286 286 287 288 289 288 286 287 287 286 286 286 286 286 286 286 287 286 287
277 277 276 275 273 273 272 275 277 278 280 280 280 281 285 285 285 285 285 289 289 289 290 291 289 286 289 291 291 292 291 291 290 287 286 286 286 287 287 287 286 286 286
Wind_Speed
3 2 4 6 9 8 11 12 12 9 8 4 3 2 2 1 1 0 1 3 3 4 4 3 5 5 4 5 5 5 4 4 6 1 1 4 8 11 9 8 7 8 8
4 3 5 5 8 11 11 11 10 10 6 3 2 2 2 1 1 1 1 2 3 3 3 4 5 6 5 5 6 5 3 2 6 3 1 3 4 6 10 9 9 12 9
8 5 6 6 8 11 12 12 11 9 6 5 5 3 3 2 1 1 0 1 2 3 3 4 4 5 4 4 5 5 5 3 2 7 3 2 3 2 6 12 11 12 8
5 5 6 7 9 8 8 10 10 9 6 6 3 4 3 3 2 1 1 1 2 3 3 4 5 5 4 4 4 4 3 1 3 2 6 4 3 3 3 6 9 12 12
8 9 8 7 6 8 8 8 8 7 6 5 4 3 3 2 2 1 2 1 2 2 3 4 5 5 4 3 3 4 4 2 1 3 2 6 5 6 3 3 4 12 10
7 6 5 7 6 5 6 7 8 6 6 6 5 5 5 4 3 2 1 1 1 1 3 4 4 5 4 4 2 2 3 3 2 3 4 2 2 1 5 5 7 6 7
7 8 9 8 7 8 7 7 8 6 6 6 5 5 5 5 4 3 2 2 1 1 2 3 4 4 5 3 1 3 3 3 3 2 3 4 4 4 8 9 6 7 5
6 8 9 9 9 8 8 7 8 6 6 6 5 4 5 3 3 3 2 2 1 1 1 3 3 5 5 4 2 2 3 3 3 4 5 7 7 7 5 6 12 8 5
8 8 7 8 8 8 9 9 8 6 6 6 5 5 5 5 4 4 2 1 1 1 1 2 4 5 4 3 3 2 3 4 4 5 6 7 6 6 6 5 8 10 6
7 7 7 8 6 6 6 7 7 8 6 6 5 5 5 5 4 3 4 3 1 1 1 2 3 4 4 3 3 3 2 6 2 4 7 8 7 7 4 3 4 7 13
8 8 7 6 7 6 7 7 7 7 6 6 5 5 5 4 4 4 3 3 2 2 1 2 2 2 3 3 3 2 2 6 4 3 6 9 9 6 6 6 6 7 10
8 7 7 7 7 7 7 8 7 7 7 6 5 6 5 5 4 4 5 4 3 2 2 2 2 1 1 1 2 3 2 4 5 4 5 9 7 9 7 7 8 9 8
7 7 7 8 8 7 7 8 7 7 6 6 6 5 5 5 5 5 5 4 4 3 2 2 2 1 1 1 3 3 2 2 4 4 6 5 9 8 9 9 9 10 8
8 6 6 7 7 7 7 7 6 6 6 6 6 7 6 6 5 5 5 4 4 3 3 2 2 2 1 1 4 5 5 3 3 4 4 6 6 11 11 10 11 11 11
7 7 7 6 6 6 6 5 5 6 6 7 7 7 6 5 5 5 5 5 5 4 3 3 2 1 2 1 4 5 5 6 5 4 4 5 7 7 9 10 11 13 10
8 7 7 7 7 6 6 6 6 7 7 8 8 6 6 6 6 6 6 5 4 4 3 4 3 1 1 2 3 6 5 5 6 5 4 3 8 9 10 12 14 15 17
9 9 8 7 6 6 5 5 5 5 6 6 5 6 6 6 5 5 5 5 5 4 4 4 3 3 3 5 3 8 5 5 6 6 6 5 3 9 8 10 11 10 14
8 6 6 5 4 4 4 3 4 4 5 5 6 5 6 5 5 4 4 3 4 5 4 4 3 2 3 6 4 8 5 5 5 7 7 8 7 7 11 12 10 10 7
8 6 5 4 5 5 5 6 5 5 5 5 5 6 6 6 6 6 6 4 3 3 3 2 3 4 4 3 3 6 6 5 6 6 7 8 9 10 13 11 9 6 4
9 9 7 5 5 4 6 8 6 6 6 5 5 6 6 6 6 5 5 3 2 2 1 2 1 2 3 2 4 6 4 6 4 4 5 8 9 15 15 10 10 10 8
13 10 8 7 5 5 7 9 7 7 3 4 5 5 4 5 5 5 4 3 3 2 3 2 1 4 4 2 3 6 4 5 4 5 4 4 11 16 15 12 10 10 9
13 10 11 8 6 6 9 10 9 4 4 7 7 6 5 3 3 4 3 3 4 3 1 1 0 2 4 3 1 2 5 5 6 6 5 4 12 15 17 12 11 14 11
13 10 12 11 7 7 7 10 4 5 6 8 7 6 5 4 3 4 3 2 1 2 1 1 1 1 1 2 3 1 2 4 3 3 6 10 13 13 10 12 15 12 7
13 11 12 11 9 7 8 7 6 5 7 9 8 7 5 4 4 2 2 1 1 1 1 1 1 1 2 1 2 1 2 4 1 4 3 5 6 7 6 6 9 5 7
10 9 11 11 9 6 7 6 4 5 9 8 7 6 5 5 4 3 1 1 1 1 1 1 1 1 1 2 2 3 0 2 5 5 2 2 3 4 4 3 4 4 5
12 11 10 12 8 7 7 5 5 4 5 7 4 3 5 4 3 3 3 4 2 4 3 5 2 1 4 6 7 3 3 5 13 3 3 2 2 5 6 7 7 6 7
Wind_Direction
234 123 132 129 127 141 144 149 143 146 142 138 134 140 167 168 145 193 72 53 33 22 16 5 335 348 342 10 1 6 4 15 353 320 107 53 45 39 25 16 20 49 75
161 142 134 135 150 152 148 145 147 154 159 136 140 136 148 155 158 191 130 63 35 24 22 358 338 350 334 23 22 22 17 8 19 344 20 41 16 26 24 26 28 40 52
166 164 152 148 140 152 156 153 151 155 154 137 121 101 94 86 156 203 143 83 43 9 21 359 337 345 329 18 14 11 39 1 357 22 20 94 62 344 6 26 40 40 35
144 158 161 155 159 153 137 139 143 149 156 156 144 149 150 153 192 171 131 69 50 11 2 360 344 347 331 9 23 22 44 34 37 350 41 46 82 91 61 38 40 40 34
172 170 169 156 142 143 146 139 139 148 152 157 158 146 144 132 134 170 146 92 61 13 359 359 344 345 328 347 47 29 7 40 49 81 40 51 50 66 88 59 25 54 34
173 158 142 134 135 129 134 142 149 154 159 157 160 163 157 156 149 183 154 118 85 353 13 355 347 326 327 348 346 67 35 72 61 88 88 87 71 90 114 103 60 71 37
169 161 157 160 153 160 158 153 154 161 167 159 160 172 161 166 169 180 167 156 96 72 16 353 355 327 333 348 31 95 67 69 75 102 88 82 86 93 100 103 86 80 35
182 179 176 168 167 166 166 161 163 155 171 165 170 168 161 166 171 186 172 173 152 149 4 340 352 321 339 346 87 92 90 73 75 104 95 98 91 109 112 121 127 89 71
187 187 175 176 173 170 175 173 167 163 175 176 163 175 168 169 176 183 178 169 166 149 37 18 351 332 350 4 54 69 79 84 91 98 101 95 96 88 92 115 121 128 121
178 185 185 182 178 170 165 168 171 172 178 172 179 180 174 174 166 163 195 188 181 138 84 61 10 347 347 20 67 69 96 83 59 108 112 108 105 94 87 81 80 125 131
180 183 186 184 175 157 167 176 174 171 176 181 179 176 169 171 167 172 194 199 179 172 160 100 49 12 342 30 82 73 88 108 103 108 117 109 106 89 81 80 86 106 129
179 178 177 169 170 176 169 180 180 183 187 182 176 179 161 165 181 181 192 195 202 174 178 122 95 339 5 160 143 132 122 132 136 122 126 120 114 101 95 92 96 108 116
161 163 161 176 180 178 177 182 188 191 179 175 172 171 176 171 192 197 191 184 195 200 190 145 121 99 352 164 166 152 148 148 162 154 134 134 126 117 119 116 112 111 110
167 167 169 181 179 181 179 181 194 188 173 176 178 178 185 186 183 196 189 182 194 203 214 170 173 145 286 208 167 158 154 166 193 179 150 134 147 138 133 125 128 131 125
169 171 167 172 171 171 177 177 184 179 172 176 183 190 183 185 176 184 188 179 185 203 208 192 163 159 197 212 176 174 168 160 181 180 168 142 131 134 137 140 143 142 136
182 173 167 165 175 178 180 172 184 184 174 183 193 174 171 178 186 181 180 175 186 194 216 217 202 198 243 201 211 184 171 166 166 178 161 156 139 144 140 133 150 161 150
177 177 178 173 175 178 170 183 179 161 178 181 169 174 171 181 190 179 168 176 178 179 211 233 217 226 243 233 163 190 172 175 172 168 156 155 168 146 153 145 146 161 168
169 170 160 141 152 150 162 153 168 166 169 167 161 165 167 173 171 167 180 170 171 186 196 229 232 249 262 262 180 179 173 180 176 173 173 167 167 173 155 158 165 172 170
144 148 141 135 141 137 138 128 112 124 127 147 156 165 161 159 163 175 178 177 180 184 189 201 219 245 258 287 276 169 170 171 186 181 173 174 168 166 157 158 160 152 161
132 137 130 123 120 129 127 112 103 101 100 120 141 148 154 160 174 177 170 155 149 177 116 226 230 262 252 340 302 222 165 161 166 180 184 179 176 164 169 162 160 170 185
133 131 123 120 121 118 111 94 92 85 70 103 103 103 119 143 154 146 151 147 158 173 205 195 276 263 251 193 316 251 186 169 164 176 191 190 178 176 179 161 174 186 158
133 132 121 103 80 85 100 98 89 82 83 92 86 72 62 58 89 121 107 143 165 162 219 199 108 241 274 266 242 304 283 174 168 189 192 175 178 182 178 167 175 152 139
136 130 119 105 81 73 93 103 89 102 100 98 87 86 86 83 83 112 128 158 139 136 198 184 207 257 302 295 240 223 203 228 188 187 191 169 173 177 175 164 156 146 149
134 129 122 114 100 78 80 82 99 108 108 102 100 98 90 78 58 73 78 127 151 143 184 223 249 300 295 271 255 229 130 117 111 135 138 152 137 142 137 132 157 166 170
121 121 121 114 111 97 84 80 64 113 106 101 97 90 84 86 79 65 41 9 291 153 205 216 233 190 311 282 258 139 155 167 151 106 67 88 106 136 146 148 178 173 166
126 117 111 112 110 100 84 49 32 72 103 97 87 85 96 96 98 89 69 65 43 348 290 266 243 251 253 302 331 354 213 207 154 115 145 163 170 180 183 185 187 189 191